Погода в Фехте

Германия     52°43′53″N   8°17′18″E
темп.,
°C
ветер,
м/с
пор.,
м/с
влажн.,
%
обл.,
%
осадки,
мм/ч
давл.,
гПа
погр.,
м
18 апреля, вс
вс1823:00+7ссв3584100 0.0 1023124
02:00+7ссв3579100 0.0 1023125
05:00+6ссв2580100 0.0 1022129
08:00+7ссв247797 0.0 1022163
11:00+10ссв346497 0.0 1022509
14:00+14св345990 0.0 10211096
17:00+15ссв4461100 0.3 10201268
20:00+9с51083100 0.6 1021254
19 апреля, пн
пн1923:00+8св3790100 0.4 1021157
02:00+8всв249672 2.3 1021146
05:00+6св369677 0.0 1021165
08:00+6всв359423 0.0 1021185
11:00+11в577525 0.0 1021793
14:00+14в5757100 0.1 10201688
17:00+14в365899 0.0 10201263
20:00+12вюв227216 0.1 102028
20 апреля, вт
вт2023:00+10вюв1173100 0.0 102015
02:00+8св228723 0.0 101917
05:00+6св22934 0.0 101917
08:00+8св23865 0.0 1019114
11:00+13всв23645 0.0 1018621
14:00+16св33514 0.0 10181258
17:00+16ссв34475 0.0 10161752
20:00+11с46760 0.0 1017134
21 апреля, ср
ср2123:00+7ссв35810 0.0 101777
02:00+5ссв22800 0.0 101717
05:00+5сз228151 0.0 101711
08:00+7сз2579100 0.0 1017184
11:00+10ссз577883 0.0 1018825
14:00+9ссз685481 0.1 10191174
17:00+9ссз89495 0.0 10191580
20:00+5ссз6106477 0.0 1020778
22 апреля, чт
чт2223:00+3зсз41076100 0.0 1022355
02:00+2зсз41079100 0.0 1022267
05:00+1з41181100 0.0 1022276
08:00+4зсз6127761 0.1 1022743
11:00+7сз71060100 0.1 10231753
14:00+9сз8115498 0.1 10231938
17:00+10сз8105238 0.0 10241862
20:00+6сз59735 0.0 1025547